Stevens Point, WI

2:50 PM CST on December 17, 2017 (GMT -0600)
Stevens Point Municipal

Weather History for KSTE - July, 2013

Change the Weather History Date:

Sunday, July 28, 2013

  Actual Average Record
Temperature  
Mean Temperature 55 °F -  
Max Temperature 64 °F 79 °F 95 °F (2006)
Min Temperature 46 °F 59 °F 46 °F (2013)
Degree Days  
Heating Degree Days 10    
Growing Degree Days 5 (Base 50)    
Moisture  
Dew Point 48 °F    
Average Humidity 80    
Maximum Humidity 96    
Minimum Humidity 59    
Precipitation  
Precipitation 0.08 in - - ()
Sea Level Pressure  
Sea Level Pressure 29.92 in    
Wind  
Wind Speed 6 mph (WNW)    
Max Wind Speed 17 mph    
Max Gust Speed 25 mph    
Visibility 10 miles    
Events Rain    
Averages and records for this station are not official NWS values.
T = Trace of Precipitation, MM = Missing Value Source: NWS Daily Summary

Daily Weather History Graph

Daily Weather History Graph

Search for Another Location

Airport or City:

Trip Planner

Search our weather history database for the weather conditions in past years. The results will help you decide how hot, cold, wet, or windy it might be!

Date:

Astronomy

Jul. 28, 2013 Rise Set
Actual Time 5:40 AM CDT 8:27 PM CDT
Civil Twilight 5:06 AM CDT 9:01 PM CDT
Nautical Twilight 4:23 AM CDT 9:44 PM CDT
Astronomical Twilight 3:33 AM CDT 10:33 PM CDT
Moon 11:29 PM CDT (7/28) 12:42 PM CDT (7/28)
Length of Visible Light 15h 54m
Length of Day
14h 47m
Waning Gibbous, 60% of the Moon is Illuminated
Jul 28
Waning Gibbous
Jul 29
Last Quarter
Aug 6
New
Aug 14
First Quarter
Aug 20
Full

Hourly Weather History & Observations

Time (CDT) Temp. Dew Point Humidity Pressure Visibility Wind Dir Wind Speed Gust Speed Precip Events Conditions
12:15 AM 49.5 °F 48.2 °F 95% 29.85 in 10.0 mi WNW 4.6 mph - N/A   Overcast
12:35 AM 49.3 °F 48.2 °F 96% 29.85 in 10.0 mi WNW 4.6 mph - N/A   Overcast
12:55 AM 49.1 °F 48.0 °F 96% 29.85 in 10.0 mi WNW 3.5 mph - N/A   Overcast
1:15 AM 49.1 °F 47.7 °F 95% 29.85 in 10.0 mi NW 4.6 mph - N/A   Overcast
1:35 AM 49.1 °F 47.7 °F 95% 29.85 in 10.0 mi WNW 3.5 mph - N/A   Overcast
1:55 AM 48.9 °F 47.8 °F 96% 29.85 in 10.0 mi WNW 3.5 mph - N/A   Overcast
2:15 AM 49.1 °F 47.8 °F 95% 29.85 in 10.0 mi NW 4.6 mph - N/A   Overcast
2:35 AM 49.1 °F 47.7 °F 95% 29.86 in 10.0 mi NW 3.5 mph - N/A   Overcast
2:55 AM 49.1 °F 47.5 °F 94% 29.86 in 10.0 mi NW 3.5 mph - N/A   Overcast
3:15 AM 49.1 °F 47.5 °F 94% 29.86 in 10.0 mi NW 4.6 mph - N/A   Overcast
3:35 AM 49.1 °F 47.3 °F 93% 29.85 in 10.0 mi NW 4.6 mph - N/A   Overcast
3:55 AM 48.7 °F 47.3 °F 95% 29.85 in 10.0 mi NNW 4.6 mph - N/A   Overcast
4:15 AM 48.6 °F 46.8 °F 93% 29.86 in 10.0 mi NW 5.8 mph - N/A   Overcast
4:35 AM 48.4 °F 46.6 °F 93% 29.86 in 10.0 mi NW 3.5 mph - N/A   Overcast
4:55 AM 48.2 °F 46.4 °F 93% 29.86 in 10.0 mi NW 3.5 mph - N/A   Overcast
5:15 AM 48.2 °F 46.4 °F 93% 29.87 in 10.0 mi Calm Calm - N/A   Overcast
5:35 AM 48.2 °F 46.8 °F 95% 29.86 in 10.0 mi West 5.8 mph - N/A   Overcast
5:55 AM 47.8 °F 46.0 °F 93% 29.87 in 10.0 mi WNW 4.6 mph - N/A   Overcast
6:15 AM 47.5 °F 44.8 °F 90% 29.88 in 10.0 mi WNW 5.8 mph - N/A   Overcast
6:35 AM 46.8 °F 44.1 °F 90% 29.89 in 10.0 mi WNW 4.6 mph - N/A   Mostly Cloudy
6:55 AM 47.5 °F 44.6 °F 90% 29.89 in 10.0 mi WNW 4.6 mph - N/A   Scattered Clouds
7:15 AM 47.3 °F 44.2 °F 89% 29.89 in 10.0 mi WNW 4.6 mph - N/A   Overcast
7:35 AM 46.9 °F 44.4 °F 91% 29.90 in 10.0 mi NW 4.6 mph - N/A   Overcast
7:55 AM 47.7 °F 45.0 °F 90% 29.89 in 10.0 mi WNW 6.9 mph - N/A   Overcast
8:15 AM 48.0 °F 45.5 °F 91% 29.90 in 10.0 mi West 5.8 mph - N/A   Overcast
8:35 AM 48.6 °F 45.7 °F 90% 29.90 in 10.0 mi WNW 3.5 mph - N/A   Overcast
8:55 AM 49.3 °F 46.6 °F 90% 29.90 in 10.0 mi WNW 3.5 mph - N/A   Overcast
9:15 AM 50.9 °F 46.8 °F 86% 29.90 in 10.0 mi WNW 6.9 mph - N/A   Overcast
9:35 AM 52.0 °F 47.1 °F 83% 29.90 in 10.0 mi NW 6.9 mph - N/A   Overcast
9:55 AM 52.9 °F 47.8 °F 83% 29.89 in 10.0 mi WNW 6.9 mph - N/A   Overcast
10:15 AM 54.0 °F 47.7 °F 79% 29.89 in 10.0 mi WNW 10.4 mph - N/A   Overcast
10:35 AM 54.1 °F 48.0 °F 80% 29.90 in 10.0 mi West 6.9 mph - N/A   Overcast
10:55 AM 54.5 °F 48.2 °F 79% 29.90 in 10.0 mi West 5.8 mph - N/A   Overcast
11:15 AM 54.7 °F 48.4 °F 79% 29.91 in 10.0 mi WNW 6.9 mph - N/A   Overcast
11:35 AM 55.6 °F 48.4 °F 77% 29.91 in 10.0 mi WNW 5.8 mph - N/A   Overcast
11:55 AM 56.7 °F 49.1 °F 76% 29.91 in 10.0 mi NW 5.8 mph - N/A   Overcast
12:15 PM 57.9 °F 48.7 °F 71% 29.91 in 10.0 mi NW 11.5 mph - N/A   Overcast
12:35 PM 59.0 °F 48.6 °F 68% 29.91 in 10.0 mi WNW 8.1 mph - N/A   Overcast
12:55 PM 60.1 °F 48.9 °F 67% 29.91 in 10.0 mi WNW 6.9 mph - N/A   Overcast
1:15 PM 61.7 °F 49.3 °F 64% 29.90 in 10.0 mi West 10.4 mph 17.3 mph N/A   Overcast
1:35 PM 63.9 °F 49.8 °F 60% 29.90 in 10.0 mi West 11.5 mph 16.1 mph N/A   Overcast
1:55 PM 61.5 °F 49.3 °F 64% 29.90 in 10.0 mi West 9.2 mph - N/A   Overcast
2:15 PM 63.3 °F 49.6 °F 61% 29.90 in 10.0 mi West 13.8 mph 20.7 mph N/A   Overcast
2:35 PM 63.1 °F 50.4 °F 63% 29.90 in 10.0 mi WSW 13.8 mph 20.7 mph N/A   Mostly Cloudy
2:55 PM 63.5 °F 48.7 °F 59% 29.91 in 10.0 mi West 17.3 mph 25.3 mph N/A   Mostly Cloudy
3:15 PM 61.9 °F 49.3 °F 63% 29.91 in 10.0 mi West 15.0 mph 21.9 mph N/A   Overcast
3:35 PM 61.9 °F 50.2 °F 65% 29.91 in 10.0 mi West 12.7 mph 20.7 mph N/A   Overcast
3:55 PM 64.6 °F 50.4 °F 60% 29.91 in 10.0 mi West 16.1 mph 24.2 mph N/A   Overcast
4:15 PM 62.4 °F 49.5 °F 63% 29.92 in 10.0 mi West 13.8 mph 20.7 mph N/A   Overcast
4:35 PM 61.7 °F 49.6 °F 65% 29.93 in 10.0 mi WNW 10.4 mph 16.1 mph N/A   Overcast
4:55 PM 61.0 °F 49.5 °F 66% 29.93 in 10.0 mi WNW 12.7 mph 16.1 mph N/A   Overcast
5:15 PM 60.4 °F 49.8 °F 68% 29.94 in 10.0 mi WNW 9.2 mph 17.3 mph N/A   Overcast
5:35 PM 59.9 °F 50.0 °F 70% 29.95 in 10.0 mi WNW 10.4 mph 17.3 mph N/A   Overcast
5:55 PM 60.1 °F 49.8 °F 69% 29.95 in 10.0 mi NW 10.4 mph 21.9 mph N/A   Overcast
6:15 PM 59.4 °F 50.4 °F 72% 29.96 in 10.0 mi WNW 11.5 mph 18.4 mph N/A   Overcast
6:35 PM 57.6 °F 50.4 °F 77% 29.96 in 10.0 mi NW 10.4 mph 20.7 mph N/A   Overcast
6:55 PM 57.4 °F 51.3 °F 80% 29.96 in 10.0 mi NW 6.9 mph 17.3 mph N/A   Overcast
7:15 PM 58.3 °F 50.0 °F 74% 29.97 in 10.0 mi NW 9.2 mph 16.1 mph N/A   Overcast
7:35 PM 58.5 °F 50.2 °F 74% 29.97 in 10.0 mi WNW 8.1 mph - N/A   Overcast
7:55 PM 58.1 °F 50.4 °F 75% 29.97 in 10.0 mi WNW 5.8 mph - N/A   Overcast
8:15 PM 58.1 °F 50.5 °F 76% 29.98 in 10.0 mi NW 5.8 mph - N/A   Overcast
8:35 PM 57.4 °F 51.1 °F 79% 29.99 in 10.0 mi NW 3.5 mph - N/A Rain Light Rain
8:55 PM 57.6 °F 50.2 °F 76% 29.99 in 10.0 mi NW 8.1 mph - N/A   Overcast
9:15 PM 57.4 °F 50.0 °F 76% 30.01 in 10.0 mi NW 8.1 mph - N/A   Overcast
9:35 PM 57.4 °F 50.0 °F 76% 30.01 in 10.0 mi NNW 8.1 mph - N/A   Overcast
9:55 PM 57.2 °F 50.2 °F 77% 30.01 in 10.0 mi WNW 3.5 mph - N/A   Overcast
10:15 PM 56.8 °F 50.4 °F 79% 30.02 in 10.0 mi NW 5.8 mph - N/A   Overcast
10:35 PM 56.8 °F 50.4 °F 79% 30.02 in 10.0 mi NW 6.9 mph - N/A   Overcast
10:55 PM 56.5 °F 50.4 °F 80% 30.02 in 10.0 mi NW 6.9 mph - N/A   Mostly Cloudy
11:15 PM 55.6 °F 50.0 °F 81% 30.02 in 10.0 mi NW 6.9 mph - N/A   Scattered Clouds
11:35 PM 55.0 °F 49.5 °F 81% 30.03 in 10.0 mi WNW 8.1 mph - N/A   Clear
11:55 PM 54.7 °F 48.4 °F 79% 30.02 in 10.0 mi NW 8.1 mph - N/A   Scattered Clouds